This demonstration page uses our WeatherBlox Daily Observations layout. Learn more.

Left ArrowRight Arrow

Hourly Observations for January 9, 2019

Temp ( °F °C ) Dew Point ( °F °C ) Humidity (%) Winds ( mph kmh ) Pressure ( in mb ) Visibility ( mi km ) Precip ( " mm )
12:59 am 00:59 Mostly Cloudy 60 15.6 49 9.4 67 67 SW 14 22 29.72 1007 10 16 0.00 0.00
1:59 am 01:59 Mostly Cloudy 58 14.4 42 5.6 56 56 W 17 28 29.77 1008 10 16 0.00 0.00
2:59 am 02:59 Mostly Cloudy 57 13.9 43 6.1 60 60 WNW 15 24 29.77 1008 10 16 0.00 0.03
3:59 am 03:59 Mostly Cloudy 55 12.8 41 5 59 59 WNW 15 24 29.79 1009 10 16 0.00 0.00
4:59 am 04:59 Partly Cloudy 53 11.7 32 0 45 45 WNW 16 26 29.80 1009 10 16 0.00 0.00
5:59 am 05:59 Partly Cloudy 50 10 31 -0.6 48 48 NW 17 28 29.81 1009 10 16 0.00 0.00
6:59 am 06:59 Mostly Clear 49 9.4 28 -2.2 44 44 NW 17 28 29.81 1010 10 16 0.00 0.00
7:59 am 07:59 Mostly Sunny 48 8.9 32 0 54 54 W 13 20 29.83 1010 10 16 0.00 0.00
8:59 am 08:59 Mostly Sunny 48 8.9 27 -2.8 44 44 W 17 28 29.85 1011 10 16 0.00 0.00
9:59 am 09:59 Mostly Sunny 50 10 24 -4.4 36 36 WNW 20 31 29.86 1011 10 16 0.00 0.00
10:59 am 10:59 Mostly Sunny 51 10.6 24 -4.4 35 35 WNW 15 24 29.84 1011 10 16 0.00 0.00
11:59 am 11:59 Mostly Sunny 52 11.1 23 -5 32 32 WNW 18 30 29.80 1009 10 16 0.00 0.00
12:59 pm 12:59 Partly Cloudy 52 11.1 23 -5 32 32 WNW 17 28 29.78 1009 10 16 0.00 0.00
1:59 pm 13:59 Partly Cloudy 51 10.6 23 -5 33 33 WNW 17 28 29.78 1009 10 16 0.00 0.00
2:59 pm 14:59 Partly Cloudy 51 10.6 23 -5 33 33 WNW 15 24 29.78 1009 10 16 0.00 0.00
3:59 pm 15:59 Mostly Cloudy 50 10 25 -3.9 38 38 WNW 18 30 29.79 1009 10 16 0.00 0.00
4:59 pm 16:59 Mostly Cloudy 50 10 26 -3.3 39 39 WNW 10 17 29.79 1009 10 16 0.00 0.00
5:59 pm 17:59 Mostly Cloudy 50 10 27 -2.8 41 41 WNW 14 22 29.81 1009 10 16 0.00 0.00
6:59 pm 18:59 Mostly Cloudy 45 7.2 27 -2.8 49 49 NNW 21 33 29.85 1011 10 16 0.00 0.00
7:59 pm 19:59 Cloudy 43 6.1 20 -6.7 40 40 NW 24 39 29.87 1011 10 16 0.00 0.00
8:59 pm 20:59 Mostly Cloudy 41 5 19 -7.2 41 41 NW 23 37 29.88 1012 10 16 0.00 0.00
9:59 pm 21:59 Partly Cloudy 39 3.9 19 -7.2 45 45 NW 24 39 29.90 1012 10 16 0.00 0.00
10:59 pm 22:59 Partly Cloudy 38 3.3 19 -7.2 46 46 NW 21 33 29.90 1013 10 16 0.00 0.00
11:59 pm 23:59 Partly Cloudy 37 2.8 18 -7.8 46 46 NW 23 37 29.91 1013 10 16 0.00 0.00

Powered by AerisWeather